TimeMDT,TemperatureF,Dew PointF,Humidity,Sea Level PressureIn,VisibilityMPH,Wind Direction,Wind SpeedMPH,Gust SpeedMPH,PrecipitationIn,Events,Conditions,WindDirDegrees,DateUTC
12:15 AM,50.5,18.1,28,29.99,10.0,Calm,Calm,-,N/A,,Mostly Cloudy,0,2013-04-26 06:15:00
12:35 AM,50.9,18.1,27,29.99,10.0,Calm,Calm,-,N/A,,Scattered Clouds,0,2013-04-26 06:35:00
1:15 AM,43.2,26.1,51,30.00,10.0,WSW,6.9,-,N/A,,Clear,250,2013-04-26 07:15:00
1:35 AM,43.2,24.8,48,29.99,10.0,West,5.8,-,N/A,,Clear,270,2013-04-26 07:35:00
1:55 AM,40.5,27.0,59,30.00,10.0,West,11.5,-,N/A,,Mostly Cloudy,280,2013-04-26 07:55:00
2:15 AM,41.7,28.4,59,30.00,10.0,WNW,11.5,-,N/A,,Scattered Clouds,290,2013-04-26 08:15:00
2:35 AM,41.4,29.7,63,30.00,10.0,WNW,9.2,-,N/A,,Scattered Clouds,300,2013-04-26 08:35:00
2:55 AM,44.4,23.9,44,30.00,10.0,NNW,13.8,-,N/A,,Scattered Clouds,330,2013-04-26 08:55:00
3:15 AM,45.5,21.7,39,30.00,10.0,NW,13.8,-,N/A,,Clear,320,2013-04-26 09:15:00
3:35 AM,46.0,21.2,37,30.00,10.0,NNW,12.7,-,N/A,,Clear,330,2013-04-26 09:35:00
3:55 AM,43.9,23.9,45,30.01,10.0,NNW,17.3,-,N/A,,Clear,330,2013-04-26 09:55:00
4:15 AM,43.7,25.0,48,30.02,10.0,NNW,16.1,-,N/A,,Clear,330,2013-04-26 10:15:00
4:35 AM,43.0,24.8,49,30.03,10.0,NNW,17.3,-,N/A,,Clear,340,2013-04-26 10:35:00
4:55 AM,41.7,23.9,49,30.03,10.0,NNW,15.0,-,N/A,,Clear,340,2013-04-26 10:55:00
5:15 AM,41.0,22.8,48,30.04,10.0,North,16.1,-,N/A,,Clear,350,2013-04-26 11:15:00
5:55 AM,41.5,20.3,43,30.05,10.0,North,17.3,-,N/A,,Clear,350,2013-04-26 11:55:00
6:15 AM,41.7,20.1,42,30.06,10.0,NNW,17.3,-,N/A,,Clear,340,2013-04-26 12:15:00
6:35 AM,42.4,20.3,41,30.07,10.0,NNW,17.3,-,N/A,,Clear,340,2013-04-26 12:35:00
6:55 AM,44.4,20.1,38,30.08,10.0,North,15.0,-,N/A,,Clear,350,2013-04-26 12:55:00
7:15 AM,46.0,21.4,38,30.09,10.0,North,13.8,-,N/A,,Clear,350,2013-04-26 13:15:00
7:35 AM,49.3,21.2,33,30.09,10.0,North,11.5,-,N/A,,Clear,350,2013-04-26 13:35:00
7:55 AM,52.0,21.2,30,30.11,10.0,North,11.5,-,N/A,,Clear,360,2013-04-26 13:55:00
8:15 AM,54.0,21.7,29,30.11,10.0,North,15.0,18.4,N/A,,Clear,360,2013-04-26 14:15:00
8:35 AM,56.5,22.1,26,30.12,10.0,North,15.0,-,N/A,,Clear,10,2013-04-26 14:35:00
8:55 AM,57.6,22.1,25,30.14,10.0,NNE,13.8,-,N/A,,Clear,20,2013-04-26 14:55:00
9:15 AM,59.2,22.3,24,30.14,10.0,NNE,11.5,-,N/A,,Clear,30,2013-04-26 15:15:00
9:35 AM,61.0,22.3,23,30.14,10.0,NE,13.8,18.4,N/A,,Clear,40,2013-04-26 15:35:00
9:55 AM,62.4,21.9,21,30.15,10.0,NE,13.8,-,N/A,,Clear,40,2013-04-26 15:55:00
10:15 AM,64.4,19.4,18,30.15,10.0,NE,12.7,20.7,N/A,,Clear,40,2013-04-26 16:15:00
10:35 AM,65.5,18.1,16,30.16,10.0,NE,17.3,21.9,N/A,,Clear,50,2013-04-26 16:35:00
10:55 AM,66.2,16.0,14,30.16,10.0,ENE,19.6,24.2,N/A,,Clear,60,2013-04-26 16:55:00
11:15 AM,66.9,15.6,14,30.17,10.0,NNE,15.0,23.0,N/A,,Clear,30,2013-04-26 17:15:00
11:35 AM,67.5,17.2,15,30.17,10.0,NE,15.0,21.9,N/A,,Clear,40,2013-04-26 17:35:00
11:55 AM,68.9,16.5,13,30.17,10.0,NE,9.2,23.0,N/A,,Clear,40,2013-04-26 17:55:00
12:15 PM,69.1,16.2,13,30.17,10.0,ENE,10.4,23.0,N/A,,Clear,60,2013-04-26 18:15:00
12:35 PM,69.6,17.8,14,30.17,10.0,NE,13.8,25.3,N/A,,Clear,50,2013-04-26 18:35:00
12:55 PM,69.6,15.3,12,30.17,10.0,North,11.5,19.6,N/A,,Clear,360,2013-04-26 18:55:00
1:15 PM,69.6,13.5,12,30.17,10.0,ENE,4.6,16.1,N/A,,Clear,70,2013-04-26 19:15:00
1:35 PM,70.0,14.7,12,30.17,10.0,East,5.8,18.4,N/A,,Scattered Clouds,90,2013-04-26 19:35:00
1:55 PM,69.6,14.2,12,30.17,10.0,ENE,6.9,-,N/A,,Clear,60,2013-04-26 19:55:00
2:15 PM,71.1,15.6,12,30.17,10.0,NNE,8.1,20.7,N/A,,Scattered Clouds,30,2013-04-26 20:15:00
2:35 PM,69.6,15.6,13,30.17,10.0,NNE,8.1,17.3,N/A,,Scattered Clouds,30,2013-04-26 20:35:00
2:55 PM,70.2,14.7,12,30.17,10.0,NNE,8.1,16.1,N/A,,Clear,30,2013-04-26 20:55:00
3:15 PM,69.1,16.2,13,30.17,10.0,NNE,11.5,23.0,N/A,,Scattered Clouds,20,2013-04-26 21:15:00
3:35 PM,67.6,15.3,13,30.16,10.0,ENE,6.9,-,N/A,,Scattered Clouds,60,2013-04-26 21:35:00
3:55 PM,70.5,16.0,12,30.16,10.0,NNE,6.9,19.6,N/A,,Clear,20,2013-04-26 21:55:00
4:15 PM,70.0,14.9,12,30.16,10.0,North,10.4,18.4,N/A,,Clear,10,2013-04-26 22:15:00
4:35 PM,68.2,15.8,13,30.16,10.0,North,8.1,-,N/A,,Clear,350,2013-04-26 22:35:00
4:55 PM,69.3,15.3,13,30.16,10.0,NE,4.6,17.3,N/A,,Clear,40,2013-04-26 22:55:00
5:15 PM,69.3,15.8,13,30.17,10.0,North,9.2,-,N/A,,Clear,350,2013-04-26 23:15:00
5:35 PM,67.5,14.5,13,30.17,10.0,East,4.6,-,N/A,,Clear,80,2013-04-26 23:35:00
5:55 PM,68.4,15.1,13,30.17,10.0,ENE,3.5,-,N/A,,Clear,60,2013-04-26 23:55:00
6:15 PM,68.0,15.6,13,30.17,10.0,East,6.9,-,N/A,,Clear,80,2013-04-27 00:15:00
6:35 PM,66.6,16.0,14,30.17,10.0,ESE,5.8,-,N/A,,Clear,110,2013-04-27 00:35:00
6:55 PM,65.3,18.1,16,30.17,10.0,East,5.8,-,N/A,,Clear,80,2013-04-27 00:55:00
7:15 PM,61.5,21.2,21,30.17,10.0,East,5.8,-,N/A,,Clear,90,2013-04-27 01:15:00
7:35 PM,57.2,21.6,25,30.17,10.0,East,6.9,-,N/A,,Clear,80,2013-04-27 01:35:00
7:55 PM,53.8,22.3,29,30.17,10.0,ESE,6.9,-,N/A,,Clear,110,2013-04-27 01:55:00
8:15 PM,53.4,22.1,30,30.18,10.0,East,4.6,-,N/A,,Clear,100,2013-04-27 02:15:00
8:35 PM,53.2,21.0,28,30.19,10.0,East,4.6,-,N/A,,Clear,80,2013-04-27 02:35:00
8:55 PM,53.4,20.7,28,30.20,10.0,East,6.9,-,N/A,,Clear,100,2013-04-27 02:55:00
9:15 PM,51.6,22.6,32,30.21,10.0,East,3.5,-,N/A,,Clear,80,2013-04-27 03:15:00
9:35 PM,51.8,22.1,31,30.21,10.0,East,5.8,-,N/A,,Clear,100,2013-04-27 03:35:00
9:55 PM,48.9,22.3,35,30.22,10.0,East,4.6,-,N/A,,Clear,80,2013-04-27 03:55:00
10:15 PM,50.7,21.9,32,30.22,10.0,East,4.6,-,N/A,,Clear,100,2013-04-27 04:15:00
10:35 PM,48.6,22.3,36,30.22,10.0,East,3.5,-,N/A,,Clear,100,2013-04-27 04:35:00
10:55 PM,48.6,22.6,36,30.22,10.0,East,3.5,-,N/A,,Clear,90,2013-04-27 04:55:00
11:15 PM,48.6,22.6,36,30.22,10.0,East,3.5,-,N/A,,Clear,90,2013-04-27 05:15:00
11:35 PM,48.7,22.8,36,30.22,10.0,Calm,Calm,-,N/A,,Clear,0,2013-04-27 05:35:00
11:55 PM,48.6,23.4,37,30.22,10.0,Calm,Calm,-,N/A,,Clear,0,2013-04-27 05:55:00